{"data":{"norad_id":55451,"epoch":"2026-05-25T00:48:21.705120Z","epoch_age_seconds":68777,"freshness":"FRESH","line1":"1 55451U 23015C   26145.03358455  .00002144  00000+0  87404-4 0  9999","line2":"2 55451  43.0040 257.9392 0001864 285.8720  74.1926 15.27589780182395","mean_motion":15.2758978,"eccentricity":0.0001864,"inclination_deg":43.004,"raan_deg":257.9392,"arg_perigee_deg":285.872,"mean_anomaly_deg":74.1926,"bstar":8.7404e-5,"rev_number":18239,"period_min":94.26614519508,"perigee_km":481.74089172792,"apogee_km":484.29873098719,"semimajor_km":6861.1568113576,"source":"CELESTRAK","updated_at":"2026-05-25T13:38:17.802355Z"}}